User: anonymous   Login
Location: Vale
(35.4830°N, 81.3830°W)
Time: 05:16:07
(UTC-05:00)
Language:

SAR-Lupe-1 - Orbit

View from above orbital plane
View from above orbital plane
View from above satellite
View from above satellite

Ground track
Ground track

The orbit data is extracted from the following two-line orbital elements,

1 29658U 06060A   16277.77622728 0.00000000  00000-0  00000-0 0    09
2 29658  98.1768 299.2327 0003000 269.8979  90.1019 15.27648785    01
Epoch (UTC): 03 October 2016 18:37:46
Eccentricity: 0.0003000
inclination: 98.1768°
perigee height: 481 km
apogee height: 485 km
right ascension of ascending node: 299.2327°
argument of perigee: 269.8979°
revolutions per day: 15.27648785
mean anomaly at epoch: 90.1019°
orbit number at epoch: 0

The dashed part of the orbit path shows where the satellite is in the earth's shadow,  

DLR